Regional Weather Roundup
Issued by NWS

Home | Current Version | Previous Version | Text Only | Print | Product List | Glossary On
Versions: 1 2 3 4 5 6 7 8 9 10 11 12 13 14 15 16 17 18 19 20 21 22 23 24 25 26 27 28 29 30 31 32 33 34 35 36 37 38 39 40 41 42 43 44 45 46 47 48 49 50
000
ASUS45 KABQ 250610
RWRNM
NEW MEXICO REGIONAL WEATHER ROUNDUP
NATIONAL WEATHER SERVICE ALBUQUERQUE NM
1100 PM MST SAT FEB 24 2018

NOTE: "FAIR" MEANS FEW OR NO CLOUDS BELOW 12,000 FEET AGL WITH NO
       SIGNIFICANT WEATHER OR OBSTRUCTIONS TO VISION.

      THIS PRODUCT IS RELEASED AS TWO VERSIONS.  ONE VERSION NEAR
      THE TOP OF THE HOUR CONTAINING PRELIMINARY DATA FROM ALBUQUERQUE
      AND OTHER STATIONS.  A FINAL VERSION WITH ADDITIONAL DATA IS
      ISSUED ABOUT 10 MINUTES AFTER THE HOUR.

NMZ501-503-504-510>518-250700-
NORTHWEST PLATEAU/NORTHCENTRAL MOUNTAINS

CITY           SKY/WX    TMP DP  RH WIND       PRES   REMARKS
FARMINGTON     CLOUDY    27   7  42 N6        29.96F WCI  20
6HR MIN TEMP:  26; 6HR MAX TEMP:  36;

LOS ALAMOS     FAIR      26   7  43 S3        29.96F
SANTA FE       FAIR      23   8  52 E6        29.98S WCI  16
6HR MIN TEMP:  21; 6HR MAX TEMP:  36;

TAOS           FAIR      19   9  65 SE5       29.97F WCI  12
ANGEL FIRE     FAIR       9   3  77 CALM      29.93S

$$
NMZ402-403-502-505>509-250700-
WESTCENTRAL MOUNTAINS/SOUTHWEST MOUNTAINS

CITY           SKY/WX    TMP DP  RH WIND       PRES   REMARKS
GALLUP         FAIR      26  15  63 CALM      29.99S
6HR MIN TEMP:  22; 6HR MAX TEMP:  33;

GRANTS         FAIR      22   9  56 SE6       30.00F WCI  15
SILVER CITY    FAIR      25  14  63 N5        30.08S WCI  19

$$
NMZ407-409-411-412-250700-
SOUTHERN DESERTS

CITY           SKY/WX    TMP DP  RH WIND       PRES   REMARKS
DEMING         FAIR      35   9  33 NW9       30.08S WCI  28
6HR MIN TEMP:  35; 6HR MAX TEMP:  51;

LAS CRUCES     FAIR      39   4  23 W8        30.08S WCI  34
HOLLOMAN AFB   FAIR      33  11  39 SE8       30.06S WCI  26
ALAMOGORDO     FAIR      36   9  32 S10       30.05S WCI  28
T OR C         FAIR      37  10  32 W3        30.01F
6HR MIN TEMP:  35; 6HR MAX TEMP:  52;


$$
NMZ519>523-250700-
CENTRAL VALLEYS/CENTRAL HIGHLANDS

CITY           SKY/WX    TMP DP  RH WIND       PRES   REMARKS
ALBUQUERQUE    FAIR      31  10  41 SE6       30.01S WCI  25
6HR MIN TEMP:  30; 6HR MAX TEMP:  44;

MORIARTY ARPT  FAIR      32   5  32 SE6       30.00R WCI  26
6HR MIN TEMP:  26; 6HR MAX TEMP:  41;

CLINES CORNERS FAIR      24   6  46 W16       29.97F WCI  11
6HR MIN TEMP:  20; 6HR MAX TEMP:  34;

BELEN          FAIR      27   5  40 CALM      30.01F
6HR MIN TEMP:  25; 6HR MAX TEMP:  45;

SOCORRO        FAIR      29   6  37 W3        30.01F
6HR MIN TEMP:  29; 6HR MAX TEMP:  48;


$$
NMZ524>526-539-540-250700-
SOUTHCENTRAL MOUNTAINS

CITY           SKY/WX    TMP DP  RH WIND       PRES   REMARKS
RUIDOSO        FAIR      28   1  31 W6        30.01F WCI  22

$$
NMZ527>531-250700-
NORTHEAST HIGHLANDS/NORTHEAST PLAINS

CITY           SKY/WX    TMP DP  RH WIND       PRES   REMARKS
LAS VEGAS      FAIR      28   3  34 W17G26    29.89F WCI  16
6HR MIN TEMP:  23; 6HR MAX TEMP:  37;

RATON          FAIR      25  -2  31 S10       29.86F WCI  15
6HR MIN TEMP:  22; 6HR MAX TEMP:  39;

CLAYTON        FAIR      29  -3  25 W13       29.87S WCI  19
6HR MIN TEMP:  29; 6HR MAX TEMP:  45;


$$
NMZ532>537-250700-
EASTCENTRAL PLAINS

CITY           SKY/WX    TMP DP  RH WIND       PRES   REMARKS
SANTA ROSA     FAIR      30   5  34 SW8       29.96S WCI  22
TUCUMCARI      FAIR      30   2  30 SW10      29.92F WCI  21
6HR MIN TEMP:  30; 6HR MAX TEMP:  52;

CANNON AFB     FAIR      31   4  31 W13       29.99S WCI  21
6HR MIN TEMP:  27; 6HR MAX TEMP:  49;

CLOVIS AIRPORT FAIR      28   4  35 SW6       29.99S WCI  22

$$
NMZ028-029-538-250700-
SOUTHEAST PLAINS

CITY           SKY/WX    TMP DP  RH WIND       PRES   REMARKS
ROSWELL        FAIR      34   9  35 SW5       29.99F WCI  30
6HR MIN TEMP:  32; 6HR MAX TEMP:  57;

ARTESIA        FAIR      36   5  27 SW6       30.01F WCI  31
CARLSBAD       FAIR      37   4  25 E7        30.00F WCI  32
6HR MIN TEMP:  34; 6HR MAX TEMP:  58;

HOBBS          FAIR      28   1  31 NW7       30.02S WCI  21


$$




USA.gov is the U.S. government's official web portal to all federal, state and local government web resources and services.